Regional Weather Roundup
Issued by NWS

Home | Current Version | Previous Version | Graphics & Text | Print | Product List | Glossary On
Versions: 1 2 3 4 5 6 7 8 9 10 11 12 13 14 15 16 17 18 19 20 21 22 23 24 25 26 27 28 29 30 31 32 33 34 35 36 37 38 39 40 41 42 43 44 45 46 47 48 49
000
ASUS45 KBOU 282007
RWRCO

WEATHER ROUNDUP FOR COLORADO
NATIONAL WEATHER SERVICE DENVER/BOULDER CO
100 PM MST SUN DEC 28 2014

NOTE: "FAIR" INDICATES FEW OR NO CLOUDS BELOW 12000 FEET WITH NO
SIGNIFICANT WEATHER AND/OR OBSTRUCTIONS TO VISIBILITY.

COZ001>005-013-030-031-282100-
...NORTHWEST COLORADO...

CITY           SKY/WX    TMP DP  RH WIND       PRES   REMARKS
CRAIG          LGT SNOW  19  15  84 E6        29.96F FOG     WCI  11
HAYDEN         CLOUDY    18  12  79 CALM      29.94F VSB 1/2
MEEKER         CLOUDY    25  11  55 SW16      29.97F WCI  12
MOUNT WERNER   NOT AVBL
STEAMBOAT SPGS CLOUDY    13   8  83 CALM      29.93F VSB 1/2
WALDEN         CLOUDY    18   9  68 S15G21    29.86R WCI   3
$$

COZ006>008-011-282100-
...WEST CENTRAL VALLEYS...

CITY           SKY/WX    TMP DP  RH WIND       PRES   REMARKS
GRAND JUNCTION CLOUDY    27  12  53 NE5       30.08F WCI  22
MONTROSE       MOSUNNY   29  10  45 N5        30.06F WCI  24
EAGLE          LGT SNOW  27  19  74 CALM      30.00F FOG
RIFLE          CLOUDY    20  13  74 SE5       30.07F WCI  13
DELTA          MOSUNNY   33   9  36 NE3       30.07
NUCLA          PTSUNNY   32  10  40 CALM      30.10
$$

COZ017>023-064>068-282100-
...SOUTHWEST COLORADO...

CITY           SKY/WX    TMP DP  RH WIND       PRES   REMARKS
DURANGO        SUNNY     21  12  68 E7        30.08F WCI  12
CORTEZ         SUNNY     28   9  44 CALM      30.10F
PAGOSA SPRINGS MOSUNNY   22  10  59 SW6       30.05  WCI  15
TELLURIDE      CLOUDY    25   4  39 CALM      30.00
WOLF CREEK PAS SUNNY      9   5  85 MISG      29.90F
$$

COZ009-010-012-014-032>034-037-058>063-282100-
...CENTRAL COLORADO...

CITY           SKY/WX    TMP DP  RH WIND       PRES   REMARKS
ASPEN          LGT SNOW  15  11  83 N6        29.94F VSB 1   WCI   6
BUENA VISTA    PTSUNNY   24  11  57 W22G32    29.88  WCI   9
COPPER MTN     SNOW      10   3  72 W9        29.79F VSB 1/2 WCI  -2
BERTHOUD PASS  NOT AVBL
COTTONWOOD PAS LGT SNOW  19   9  63 NW12G20   29.84S VSB 1   WCI   7
GUNNISON       CLOUDY     1 -15  46 E3        30.06F
KREMMLING      LGT SNOW  18  10  73 E6        29.93F WCI   9
LEADVILLE      LGT SNOW  13   6  74 NW10G18   29.83F WCI   0
SALIDA         PTSUNNY   30   3  31 W29G38    29.97  WCI  15
SUNLIGHT       SNOW     N/A N/A N/A CALM      29.87F VSB 1/4
WILKERSON PASS MOSUNNY   19   7  58 SW9       29.83F WCI   9
$$

COZ069>075-282100-
...SAN LUIS VALLEY/SANGRE DE CRISTO MOUNTAINS...

CITY           SKY/WX    TMP DP  RH WIND       PRES   REMARKS
ALAMOSA        SUNNY     18   4  54 VRB3      29.99F
LA VETA PASS   NOT AVBL
SAGUACHE       CLOUDY     9   0  66 CALM      30.00F
$$

COZ035-036-038>040-282100-
...NORTHERN COLORADO FRONT RANGE...

CITY           SKY/WX    TMP DP  RH WIND       PRES   REMARKS
DENVER INTL AP MOSUNNY   34  16  47 S3        29.82F
DMNS CITY PARK   N/A     40   9  27 NE2       29.83S
AURORA         MOSUNNY   35  15  44 SE3       29.83F
FRONT RANGE AP SUNNY     34  18  51 CALM      29.84S
ERIE MUNI ARPT   N/A     28  17  64 MISG      29.84
BOULDER MUN AP SUNNY     32  12  43 N3        29.82F
CENTENNIAL     MOSUNNY   36  13  38 NE5       29.81F
BROOMFIELD     MOSUNNY   37  12  35 NW13      29.82F
FORT COLLINS   MOSUNNY   19  10  68 N7        29.86F WCI  10
LONGMONT       MOSUNNY   36  13  39 S5        29.85F
$$

COZ041-046-047-076>085-087-088-282100-
...PIKES PEAK/PALMER DIVIDE AND SOUTHERN FOOTHILLS...

CITY           SKY/WX    TMP DP  RH WIND       PRES   REMARKS
COLO. SPRINGS  MOSUNNY   42   5  21 SW10G16   29.82F
A. F. ACADEMY  SUNNY     40   8  26 W15       29.80S
ELLICOTT       NOT AVBL
FALCON         SUNNY     41   5  22 W10G17    29.81S
FORT CARSON    SUNNY     41   8  25 E3        29.81F
LIMON          SUNNY     34  16  47 NW5       29.84F WCI  30
MONUMENT HILL  SUNNY     34  10  37 CALM      29.80S
TRINIDAD       SUNNY     28  14  55 S6        29.86F WCI  22
$$

COZ042>045-048>051-090-091-282100-
...NORTHEAST COLORADO...

CITY           SKY/WX    TMP DP  RH WIND       PRES   REMARKS
GREELEY ARPT   MOSUNNY   18   9  68 NW3       29.86F
AKRON          CLOUDY    21  15  78 NW7       29.87F WCI  12
BURLINGTON     PTSUNNY   31  20  63 SE10      29.87F WCI  22
WRAY           PTSUNNY   31  17  55 CALM      29.92
STERLING       CLOUDY    21  14  73 SE3       29.90F
HOLYOKE        MOSUNNY   32  18  55 CALM      29.92F
FORT MORGAN    CLOUDY    21  13  70 NW3       29.88
$$

COZ086-089-092>099-282100-
...SOUTHEAST COLORADO...

CITY           SKY/WX    TMP DP  RH WIND       PRES   REMARKS
PUEBLO         SUNNY     48   7  18 W28G37    29.82F
LA JUNTA       SUNNY     33  19  56 CALM      29.88F
LAMAR          SUNNY     35  17  47 NW5       29.90F WCI  31
SPRINGFIELD      N/A     43  11  27 S10       29.87F
$$



USA.gov is the U.S. government's official web portal to all federal, state and local government web resources and services.